Time,TemperatureF,DewpointF,PressureIn,WindDirection,WindDirectionDegrees,WindSpeedMPH,WindSpeedGustMPH,Humidity,HourlyPrecipIn,Conditions,Clouds,dailyrainin,SoftwareType,DateUTC
2013-04-19 00:12:00,66.4,64.9,29.76,SSW,202,1.1,-999.0,95,-99.99,,,0.00,Acu-Link.com,2013-04-19 04:12:00,
2013-04-19 00:28:00,66.4,64.6,29.76,NW,315,1.1,-999.0,94,-99.99,,,0.00,Acu-Link.com,2013-04-19 04:28:00,
2013-04-19 00:43:00,66.4,64.6,29.75,SSW,202,1.7,-999.0,94,-99.99,,,0.00,Acu-Link.com,2013-04-19 04:43:00,
2013-04-19 00:58:00,66.6,64.8,29.75,North,0,1.1,-999.0,94,-99.99,,,0.00,Acu-Link.com,2013-04-19 04:58:00,
2013-04-19 01:13:00,66.6,64.8,29.75,SSE,157,0.0,-999.0,94,-99.99,,,0.00,Acu-Link.com,2013-04-19 05:13:00,
2013-04-19 01:28:00,66.7,65.2,29.74,ENE,67,1.1,-999.0,95,-99.99,,,0.00,Acu-Link.com,2013-04-19 05:28:00,
2013-04-19 01:44:00,66.7,65.5,29.73,ESE,112,1.1,-999.0,96,-99.99,,,0.00,Acu-Link.com,2013-04-19 05:44:00,
2013-04-19 01:59:00,66.7,65.5,29.73,SW,225,1.7,-999.0,96,-99.99,,,0.00,Acu-Link.com,2013-04-19 05:59:00,
2013-04-19 02:14:00,66.7,65.5,29.72,NNE,22,2.2,-999.0,96,-99.99,,,0.00,Acu-Link.com,2013-04-19 06:14:00,
2013-04-19 02:30:00,66.7,65.5,29.72,SW,225,2.2,-999.0,96,-99.99,,,0.00,Acu-Link.com,2013-04-19 06:30:00,
2013-04-19 02:45:00,66.7,65.5,29.71,SW,225,1.7,-999.0,96,-99.99,,,0.00,Acu-Link.com,2013-04-19 06:45:00,
2013-04-19 03:01:00,66.7,65.8,29.71,NE,45,3.7,-999.0,97,-99.99,,,0.00,Acu-Link.com,2013-04-19 07:01:00,
2013-04-19 03:16:00,66.7,65.8,29.70,ENE,67,2.7,-999.0,97,-99.99,,,0.00,Acu-Link.com,2013-04-19 07:16:00,
2013-04-19 03:31:00,66.7,65.8,29.69,South,180,2.2,-999.0,97,-99.99,,,0.00,Acu-Link.com,2013-04-19 07:31:00,
2013-04-19 03:47:00,66.7,65.8,29.69,SW,225,2.2,-999.0,97,-99.99,,,0.00,Acu-Link.com,2013-04-19 07:47:00,
2013-04-19 04:02:00,66.7,65.8,29.68,ENE,67,0.0,-999.0,97,-99.99,,,0.00,Acu-Link.com,2013-04-19 08:02:00,
2013-04-19 04:17:00,66.6,65.7,29.68,SW,225,1.7,-999.0,97,-99.99,,,0.00,Acu-Link.com,2013-04-19 08:17:00,
2013-04-19 04:32:00,66.6,65.7,29.67,SE,135,1.7,-999.0,97,-99.99,,,0.00,Acu-Link.com,2013-04-19 08:32:00,
2013-04-19 04:47:00,66.6,65.7,29.67,ESE,112,1.1,-999.0,97,-99.99,,,0.00,Acu-Link.com,2013-04-19 08:47:00,
2013-04-19 05:03:00,66.6,65.4,29.67,NNE,22,1.1,-999.0,96,-99.99,,,0.00,Acu-Link.com,2013-04-19 09:03:00,
2013-04-19 05:18:00,66.4,65.2,29.67,WSW,247,1.1,-999.0,96,-99.99,,,0.00,Acu-Link.com,2013-04-19 09:18:00,
2013-04-19 05:33:00,66.4,65.2,29.67,NE,45,3.7,-999.0,96,-99.99,,,0.00,Acu-Link.com,2013-04-19 09:33:00,
2013-04-19 05:49:00,66.4,64.6,29.66,SW,225,2.7,-999.0,94,-99.99,,,0.00,Acu-Link.com,2013-04-19 09:49:00,
2013-04-19 06:04:00,66.6,64.8,29.66,ENE,67,3.2,-999.0,94,-99.99,,,0.00,Acu-Link.com,2013-04-19 10:04:00,
2013-04-19 06:19:00,66.6,64.8,29.66,SE,135,1.1,-999.0,94,-99.99,,,0.00,Acu-Link.com,2013-04-19 10:19:00,
2013-04-19 06:34:00,66.4,64.6,29.66,SSW,202,1.7,-999.0,94,-99.99,,,0.00,Acu-Link.com,2013-04-19 10:34:00,
2013-04-19 06:49:00,66.2,64.7,29.67,West,270,2.2,-999.0,95,-99.99,,,0.00,Acu-Link.com,2013-04-19 10:49:00,
2013-04-19 07:05:00,66.2,64.7,29.67,SW,225,1.7,-999.0,95,-99.99,,,0.00,Acu-Link.com,2013-04-19 11:05:00,
2013-04-19 07:20:00,66.2,64.7,29.68,SW,225,1.7,-999.0,95,-99.99,,,0.00,Acu-Link.com,2013-04-19 11:20:00,
2013-04-19 07:35:00,66.2,65.0,29.68,ESE,112,1.1,-999.0,96,-99.99,,,0.00,Acu-Link.com,2013-04-19 11:35:00,
2013-04-19 07:50:00,66.2,65.0,29.67,South,180,2.2,-999.0,96,-99.99,,,0.00,Acu-Link.com,2013-04-19 11:50:00,
2013-04-19 08:06:00,66.2,65.0,29.67,SW,225,2.2,-999.0,96,-99.99,,,0.00,Acu-Link.com,2013-04-19 12:06:00,
2013-04-19 08:21:00,65.8,64.9,29.67,SSE,157,1.1,-999.0,97,-99.99,,,0.00,Acu-Link.com,2013-04-19 12:21:00,
2013-04-19 08:37:00,65.8,65.2,29.66,ESE,112,4.2,-999.0,98,-99.99,,,0.00,Acu-Link.com,2013-04-19 12:37:00,
2013-04-19 08:52:00,65.1,64.5,29.66,SW,225,1.1,-999.0,98,-99.99,,,0.01,Acu-Link.com,2013-04-19 12:52:00,
2013-04-19 09:08:00,64.9,64.3,29.67,SW,225,1.1,-999.0,98,-99.99,,,0.01,Acu-Link.com,2013-04-19 13:08:00,
2013-04-19 09:24:00,64.8,64.2,29.65,WSW,247,0.0,-999.0,98,-99.99,,,0.02,Acu-Link.com,2013-04-19 13:24:00,
2013-04-19 09:39:00,64.8,64.2,29.65,SSW,202,1.1,-999.0,98,-99.99,,,0.04,Acu-Link.com,2013-04-19 13:39:00,
2013-04-19 09:54:00,64.8,64.2,29.63,ESE,112,0.0,-999.0,98,-99.99,,,0.06,Acu-Link.com,2013-04-19 13:54:00,
2013-04-19 10:10:00,64.8,64.2,29.64,NNE,22,1.1,-999.0,98,-99.99,,,0.06,Acu-Link.com,2013-04-19 14:10:00,
2013-04-19 10:25:00,64.9,64.3,29.63,South,180,1.1,-999.0,98,-99.99,,,0.06,Acu-Link.com,2013-04-19 14:25:00,
2013-04-19 10:40:00,64.9,64.3,29.63,East,90,1.7,-999.0,98,-99.99,,,0.06,Acu-Link.com,2013-04-19 14:40:00,
2013-04-19 10:55:00,64.9,64.3,29.61,WNW,292,0.0,-999.0,98,-99.99,,,0.09,Acu-Link.com,2013-04-19 14:55:00,
2013-04-19 11:10:00,64.9,64.3,29.60,ESE,112,1.1,-999.0,98,-99.99,,,0.10,Acu-Link.com,2013-04-19 15:10:00,
2013-04-19 11:26:00,64.9,64.3,29.59,SSW,202,0.0,-999.0,98,-99.99,,,0.13,Acu-Link.com,2013-04-19 15:26:00,
2013-04-19 11:41:00,64.9,64.3,29.61,ESE,112,1.1,-999.0,98,-99.99,,,0.18,Acu-Link.com,2013-04-19 15:41:00,
2013-04-19 11:56:00,64.6,64.0,29.62,SW,225,0.0,-999.0,98,-99.99,,,0.47,Acu-Link.com,2013-04-19 15:56:00,
2013-04-19 12:11:00,63.9,63.3,29.63,SSE,157,2.7,-999.0,98,-99.99,,,0.57,Acu-Link.com,2013-04-19 16:11:00,
2013-04-19 12:26:00,63.3,62.7,29.64,WSW,247,0.0,-999.0,98,-99.99,,,0.61,Acu-Link.com,2013-04-19 16:26:00,
2013-04-19 12:42:00,63.0,62.4,29.64,North,0,0.0,-999.0,98,-99.99,,,0.64,Acu-Link.com,2013-04-19 16:42:00,
2013-04-19 12:57:00,62.1,61.5,29.65,SSE,157,1.1,-999.0,98,-99.99,,,0.67,Acu-Link.com,2013-04-19 16:57:00,
2013-04-19 13:12:00,60.8,60.2,29.64,SSW,202,0.0,-999.0,98,-99.99,,,0.69,Acu-Link.com,2013-04-19 17:12:00,
2013-04-19 13:27:00,60.1,59.5,29.64,WSW,247,1.1,-999.0,98,-99.99,,,0.71,Acu-Link.com,2013-04-19 17:27:00,
2013-04-19 13:42:00,59.5,58.9,29.64,ESE,112,1.7,-999.0,98,-99.99,,,0.71,Acu-Link.com,2013-04-19 17:42:00,
2013-04-19 13:58:00,59.4,58.8,29.64,SSW,202,0.0,-999.0,98,-99.99,,,0.79,Acu-Link.com,2013-04-19 17:58:00,
2013-04-19 14:13:00,58.5,57.9,29.65,ESE,112,1.7,-999.0,98,-99.99,,,0.80,Acu-Link.com,2013-04-19 18:13:00,
2013-04-19 14:28:00,57.6,57.0,29.66,NNE,22,1.7,-999.0,98,-99.99,,,0.80,Acu-Link.com,2013-04-19 18:28:00,
2013-04-19 14:44:00,57.2,56.6,29.66,SSW,202,1.7,-999.0,98,-99.99,,,0.80,Acu-Link.com,2013-04-19 18:44:00,
2013-04-19 14:59:00,57.4,56.8,29.63,SE,135,0.0,-999.0,98,-99.99,,,0.80,Acu-Link.com,2013-04-19 18:59:00,
2013-04-19 15:14:00,57.6,57.0,29.63,SSE,157,1.1,-999.0,98,-99.99,,,0.80,Acu-Link.com,2013-04-19 19:14:00,
2013-04-19 15:29:00,57.4,56.8,29.63,NNW,337,1.1,-999.0,98,-99.99,,,0.80,Acu-Link.com,2013-04-19 19:29:00,
2013-04-19 15:44:00,56.8,56.2,29.64,West,270,1.7,-999.0,98,-99.99,,,0.80,Acu-Link.com,2013-04-19 19:44:00,
2013-04-19 16:00:00,55.8,55.2,29.63,West,270,2.2,-999.0,98,-99.99,,,0.80,Acu-Link.com,2013-04-19 20:00:00,
2013-04-19 16:15:00,55.4,54.6,29.66,SW,225,2.2,-999.0,97,-99.99,,,0.80,Acu-Link.com,2013-04-19 20:15:00,
2013-04-19 16:30:00,54.9,54.3,29.66,SW,225,2.2,-999.0,98,-99.99,,,0.80,Acu-Link.com,2013-04-19 20:30:00,
2013-04-19 16:45:00,54.9,54.3,29.67,West,270,1.7,-999.0,98,-99.99,,,0.80,Acu-Link.com,2013-04-19 20:45:00,
2013-04-19 17:00:00,54.5,52.2,29.66,SW,225,2.7,-999.0,92,-99.99,,,0.80,Acu-Link.com,2013-04-19 21:00:00,
2013-04-19 17:16:00,54.3,52.6,29.69,WSW,247,1.1,-999.0,94,-99.99,,,0.80,Acu-Link.com,2013-04-19 21:16:00,
2013-04-19 17:31:00,54.5,53.4,29.68,SW,225,0.0,-999.0,96,-99.99,,,0.80,Acu-Link.com,2013-04-19 21:31:00,
2013-04-19 17:47:00,54.0,51.7,29.66,WSW,247,1.1,-999.0,92,-99.99,,,0.80,Acu-Link.com,2013-04-19 21:47:00,
2013-04-19 18:02:00,54.1,52.1,29.66,West,270,0.0,-999.0,93,-99.99,,,0.80,Acu-Link.com,2013-04-19 22:02:00,
2013-04-19 18:45:00,54.3,50.5,29.66,SW,225,0.0,-999.0,87,-99.99,,,0.80,Acu-Link.com,2013-04-19 22:45:00,
2013-04-19 19:01:00,52.3,47.6,29.69,SW,225,1.7,-999.0,84,-99.99,,,0.80,Acu-Link.com,2013-04-19 23:01:00,
2013-04-19 19:16:00,52.0,46.7,29.68,NW,315,1.1,-999.0,82,-99.99,,,0.80,Acu-Link.com,2013-04-19 23:16:00,
2013-04-19 19:31:00,51.8,46.2,29.68,SW,225,2.2,-999.0,81,-99.99,,,0.80,Acu-Link.com,2013-04-19 23:31:00,
2013-04-19 19:46:00,51.1,46.1,29.68,SW,225,1.7,-999.0,83,-99.99,,,0.80,Acu-Link.com,2013-04-19 23:46:00,
2013-04-19 20:01:00,50.7,46.0,29.70,West,270,2.7,-999.0,84,-99.99,,,0.80,Acu-Link.com,2013-04-20 00:01:00,
2013-04-19 20:17:00,50.0,45.0,29.69,WNW,292,1.7,-999.0,83,-99.99,,,0.80,Acu-Link.com,2013-04-20 00:17:00,
2013-04-19 20:32:00,49.3,45.0,29.70,SW,225,1.7,-999.0,85,-99.99,,,0.80,Acu-Link.com,2013-04-20 00:32:00,
2013-04-19 20:47:00,48.9,44.6,29.71,West,270,1.7,-999.0,85,-99.99,,,0.80,Acu-Link.com,2013-04-20 00:47:00,
2013-04-19 21:03:00,48.6,43.4,29.73,SSW,202,2.7,-999.0,82,-99.99,,,0.80,Acu-Link.com,2013-04-20 01:03:00,
2013-04-19 21:18:00,48.0,42.1,29.74,NE,45,2.2,-999.0,80,-99.99,,,0.80,Acu-Link.com,2013-04-20 01:18:00,
2013-04-19 21:33:00,47.7,41.8,29.76,SSW,202,4.2,-999.0,80,-99.99,,,0.80,Acu-Link.com,2013-04-20 01:33:00,
2013-04-19 21:49:00,47.3,41.8,29.77,WSW,247,1.7,-999.0,81,-99.99,,,0.80,Acu-Link.com,2013-04-20 01:49:00,
2013-04-19 22:04:00,46.8,41.6,29.78,WSW,247,1.7,-999.0,82,-99.99,,,0.80,Acu-Link.com,2013-04-20 02:04:00,
2013-04-19 22:19:00,46.8,41.3,29.79,WSW,247,1.7,-999.0,81,-99.99,,,0.80,Acu-Link.com,2013-04-20 02:19:00,
2013-04-19 22:34:00,46.6,40.8,29.79,South,180,2.2,-999.0,80,-99.99,,,0.80,Acu-Link.com,2013-04-20 02:34:00,
2013-04-19 22:49:00,46.2,40.1,29.79,WSW,247,2.7,-999.0,79,-99.99,,,0.80,Acu-Link.com,2013-04-20 02:49:00,
2013-04-19 23:05:00,46.0,39.5,29.80,SSW,202,2.7,-999.0,78,-99.99,,,0.80,Acu-Link.com,2013-04-20 03:05:00,
2013-04-19 23:20:00,45.7,39.2,29.80,SW,225,1.7,-999.0,78,-99.99,,,0.80,Acu-Link.com,2013-04-20 03:20:00,
2013-04-19 23:35:00,45.5,38.4,29.80,WSW,247,3.2,-999.0,76,-99.99,,,0.80,Acu-Link.com,2013-04-20 03:35:00,
2013-04-19 23:50:00,45.1,38.7,29.80,WSW,247,1.1,-999.0,78,-99.99,,,0.80,Acu-Link.com,2013-04-20 03:50:00,